Weather History for Panama City, FL

Change the Weather History Date:

Monday, April 22, 2013

  Actual Average Record
Temperature  
Mean Temperature 66 °F -  
Max Temperature 73 °F - 84 °F (2011)
Min Temperature 59 °F - 54 °F (2014)
Degree Days  
Heating Degree Days 0    
Cooling Degree Days 1    
Growing Degree Days 16 (Base 50)    
Moisture  
Dew Point 57 °F    
Average Humidity 73    
Maximum Humidity 84    
Minimum Humidity 61    
Precipitation  
Precipitation 0.00 in - 0.00 in (2014)
Month to date precipitation  
Year to date precipitation  
Sea Level Pressure  
Sea Level Pressure 30.14 in    
Wind  
Wind Speed 4 mph (NE)    
Max Wind Speed 15 mph    
Max Gust Speed 20 mph    
Visibility 10 miles    
Events      
T = Trace of Precipitation, MM = Missing Value Source: NWS Daily Summary

Daily Weather History Graph

Daily Weather History Graph

Search for Another Location

Airport:

Trip Planner

Search our weather history database for the weather conditions in past years. The results will help you decide how hot, cold, wet, or windy it might be!

Date:

Astronomy

Apr. 22, 2013 Rise Set
Actual Time 7:08 AM EDT 8:15 PM EDT
Civil Twilight 6:43 AM EDT 8:40 PM EDT
Nautical Twilight 6:13 AM EDT 9:10 PM EDT
Astronomical Twilight 5:43 AM EDT 9:40 PM EDT
Moon 5:15 PM EDT (4/22) 4:48 AM EDT (4/22)
Length of Visible Light 13h 57m
Length of Day
13h 07m
Waxing Gibbous, 87% of the Moon is Illuminated
Apr 22
Waxing Gibbous
Apr 25
Full
May 2
Last Quarter
May 9
New
May 18
First Quarter

Hourly Weather History & Observations

Time (EDT) Temp. Dew Point Humidity Pressure Visibility Wind Dir Wind Speed Gust Speed Precip Events Conditions
12:53 AM 64.0 °F 57.0 °F 78% 30.17 in 10.0 mi Calm Calm - N/A   Overcast
1:53 AM 63.0 °F 55.9 °F 78% 30.14 in 10.0 mi NE 4.6 mph - N/A   Overcast
2:53 AM 61.0 °F 55.9 °F 83% 30.13 in 10.0 mi Calm Calm - N/A   Mostly Cloudy
3:16 AM 60.8 °F 55.4 °F 82% 30.09 in 10.0 mi Calm Calm - N/A   Scattered Clouds
3:36 AM 60.8 °F 57.2 °F 88% 30.09 in 10.0 mi NE 3.5 mph - N/A   Mostly Cloudy
3:53 AM 63.0 °F 57.0 °F 81% 30.13 in 10.0 mi NNE 3.5 mph - N/A   Overcast
4:06 AM 62.6 °F 57.2 °F 82% 30.09 in 10.0 mi NNE 4.6 mph - N/A   Overcast
4:53 AM 64.0 °F 57.0 °F 78% 30.13 in 10.0 mi NNE 3.5 mph - N/A   Overcast
5:53 AM 64.0 °F 57.0 °F 78% 30.13 in 10.0 mi NE 3.5 mph - N/A   Overcast
6:53 AM 63.0 °F 57.0 °F 81% 30.14 in 10.0 mi Calm Calm - N/A   Overcast
7:53 AM 63.0 °F 57.0 °F 81% 30.16 in 10.0 mi NE 3.5 mph - N/A   Overcast
8:53 AM 64.9 °F 57.0 °F 75% 30.15 in 10.0 mi ENE 8.1 mph - N/A   Overcast
9:53 AM 64.9 °F 57.0 °F 75% 30.17 in 10.0 mi ENE 11.5 mph - N/A   Overcast
10:53 AM 66.9 °F 57.0 °F 70% 30.18 in 10.0 mi NE 6.9 mph - N/A   Overcast
11:53 AM 69.1 °F 57.9 °F 68% 30.19 in 10.0 mi NNE 10.4 mph 18.4 mph N/A   Overcast
12:53 PM 70.0 °F 57.9 °F 65% 30.17 in 10.0 mi NNE 11.5 mph - N/A   Overcast
1:13 PM 69.8 °F 57.2 °F 64% 30.13 in 10.0 mi NNE 10.4 mph - N/A   Overcast
1:53 PM 71.1 °F 57.9 °F 63% 30.15 in 10.0 mi NNE 11.5 mph - N/A   Overcast
2:53 PM 71.1 °F 57.9 °F 63% 30.16 in 10.0 mi NNE 5.8 mph - N/A   Overcast
3:53 PM 72.0 °F 57.9 °F 61% 30.13 in 10.0 mi NNE 9.2 mph - N/A   Overcast
4:53 PM 72.0 °F 57.9 °F 61% 30.12 in 10.0 mi North 8.1 mph - N/A   Overcast
5:53 PM 71.1 °F 57.0 °F 61% 30.12 in 10.0 mi NNE 10.4 mph - N/A   Overcast
6:53 PM 71.1 °F 57.9 °F 63% 30.12 in 10.0 mi NNE 5.8 mph - N/A   Overcast
7:53 PM 70.0 °F 57.9 °F 65% 30.12 in 10.0 mi NE 3.5 mph - N/A   Mostly Cloudy
8:53 PM 68.0 °F 57.9 °F 70% 30.13 in 10.0 mi NE 4.6 mph - N/A   Mostly Cloudy
9:53 PM 64.9 °F 57.0 °F 75% 30.14 in 10.0 mi NE 5.8 mph - N/A   Partly Cloudy
10:53 PM 63.0 °F 57.0 °F 81% 30.15 in 10.0 mi ENE 4.6 mph - N/A   Clear
11:53 PM 63.0 °F 57.0 °F 81% 30.15 in 10.0 mi ENE 3.5 mph - N/A   Overcast